EW7452 Weather Reports


time (UTC)temp
F
wind
direction
speed
knots
gust
knots
rain 1hr
in
rain 24hr
in
rain mn
in
humidity
%
barometer
mb
20260506061611 42 270 19.1 22.6 0.00 0.00 0.00 74 1004.9
20260506044600 41 285 19.1 22.6 0.00 0.00 0.00 76 1003.7
20260506043111 41 280 19.1 22.6 0.00 0.00 0.00 77 1003.6
20260506041601 41 289 20.0 21.7 0.00 0.00 0.00 78 1003.5
20260506040001 40 286 18.2 22.6 0.00 0.00 0.00 79 1003.3
20260506034617 40 289 20.0 22.6 0.00 0.00 0.00 80 1003.2
20260506033015 39 286 18.2 24.3 0.00 0.00 0.00 81 1003.1
20260506031520 39 280 19.1 21.7 0.00 0.00 0.00 81 1003.0
20260506024503 38 280 20.0 22.6 0.00 0.00 0.00 84 1002.7
20260506023106 38 286 17.4 22.6 0.00 0.00 0.00 84 1002.7
20260506021606 38 290 17.4 25.2 0.00 0.00 0.00 83 1002.5
20260506020100 38 285 18.2 21.7 0.00 0.00 0.00 83 1002.5
20260506014601 38 289 18.2 21.7 0.00 0.00 0.00 83 1002.3
20260506013013 38 288 13.9 20.9 0.00 0.00 0.00 83 1002.3
20260506011509 38 287 17.4 21.7 0.00 0.00 0.00 83 1002.1
20260506010120 38 285 17.4 21.7 0.00 0.00 0.00 83 1001.9
20260506004603 38 287 17.4 22.6 0.00 0.00 0.00 83 1001.9
20260506003011 38 284 18.2 21.7 0.00 0.00 0.00 83 1001.8
20260506001502 38 293 17.4 21.7 0.00 0.00 0.00 83 1001.6
20260506000110 38 282 18.2 21.7 0.00 0.00 0.00 83 1001.7
20260505234501 39 285 17.4 21.7 0.00 0.00 0.00 83 1001.6
20260505233005 39 285 18.2 21.7 0.00 0.00 0.00 83 1001.5
20260505231513 39 283 17.4 21.7 0.00 0.00 0.00 83 1001.5
20260505224601 39 359 17.4 20.0 0.00 0.00 0.00 81 1001.4
20260505223104 39 288 18.2 20.9 0.00 0.00 0.00 81 1001.5
20260505221602 39 287 16.5 20.0 0.00 0.00 0.00 82 1001.4
20260505220002 40 286 16.5 20.0 0.00 0.00 0.00 81 1001.4
20260505214502 39 290 15.6 19.1 0.00 0.00 0.00 81 1001.3
20260505213116 39 284 14.8 16.5 0.00 0.00 0.00 83 1001.3
20260505211512 40 284 12.2 15.6 0.00 0.00 0.00 83 1001.3
20260505210103 40 264 13.0 14.8 0.00 0.00 0.00 82 1001.2
20260505204512 40 274 13.9 18.2 0.00 0.00 0.00 81 1001.1
20260505203001 40 283 13.0 15.6 0.00 0.00 0.00 79 1000.9
20260505201502 40 284 13.9 16.5 0.00 0.00 0.00 79 1000.8
20260505200011 40 283 14.8 17.4 0.00 0.00 0.00 80 1000.7
20260505194601 40 279 14.8 18.2 0.00 0.00 0.00 79 1000.7
20260505193012 41 284 15.6 18.2 0.00 0.00 0.00 79 1000.6
20260505191502 41 283 13.9 17.4 0.00 0.00 0.00 79 1000.5
20260505190017 41 285 14.8 20.0 0.00 0.00 0.00 79 1000.5
20260505184511 41 280 17.4 21.7 0.00 0.00 0.00 80 1000.4
20260505183145 42 278 20.9 24.3 0.00 0.00 0.00 77 1000.3
20260505181601 41 274 16.5 20.0 0.00 0.00 0.00 79 1000.1
20260505180012 42 269 15.6 18.2 0.00 0.00 0.00 79 1000.1
20260505174601 42 276 14.8 17.4 0.00 0.00 0.00 79 1000.0
20260505173011 42 264 16.5 20.0 0.00 0.00 0.00 78 1000.0
20260505171502 43 266 18.2 21.7 0.00 0.00 0.00 76 999.9
20260505170004 43 261 16.5 19.1 0.00 0.00 0.00 75 999.8
20260505164514 44 256 14.8 17.4 0.00 0.00 0.00 77 999.8
20260505163101 44 251 16.5 20.0 0.00 0.00 0.00 79 999.8
20260505161502 44 253 19.1 23.5 0.00 0.00 0.00 79 999.8
20260505153103 44 251 18.2 21.7 0.00 0.00 0.00 77 999.5
20260505151624 44 259 18.2 21.7 0.00 0.00 0.00 76 999.4
20260505124602 46 253 19.1 22.6 0.00 0.00 0.00 68 998.6
20260505123012 46 256 17.4 20.9 0.00 0.00 0.00 70 998.5
20260505121502 45 256 16.5 20.9 0.00 0.00 0.00 71 998.4
20260505114602 46 256 15.6 18.2 0.00 0.00 0.00 71 998.2
20260505113003 46 258 15.6 18.2 0.00 0.00 0.00 69 998.1
20260505111513 45 255 15.6 20.0 0.00 0.00 0.00 71 998.0
20260505101509 44 260 16.5 21.7 0.00 0.00 0.00 71 997.4
20260505100003 44 260 16.5 20.9 0.00 0.00 0.00 72 997.3
20260505094603 44 269 16.5 20.0 0.00 0.00 0.00 73 997.2
20260505091511 44 263 16.5 20.0 0.00 0.00 0.00 74 996.9
20260505083011 44 271 15.6 20.0 0.00 0.00 0.00 75 996.5
20260505080100 43 262 16.5 18.2 0.00 0.00 0.00 76 996.1
20260505074610 43 268 16.5 20.0 0.00 0.00 0.00 77 996.1
20260505073019 42 267 16.5 20.0 0.00 0.00 0.00 78 995.9
20260505071610 43 267 15.6 20.0 0.00 0.00 0.00 77 995.8